Time,TemperatureF,DewpointF,PressureIn,WindDirection,WindDirectionDegrees,WindSpeedMPH,WindSpeedGustMPH,Humidity,HourlyPrecipIn,Conditions,Clouds,dailyrainin,SoftwareType,DateUTC
2013-08-07 00:02:00,80.6,76.3,30.00,SSE,156,0.0,8.0,87,0.00,,,0.00,meteohub,2013-08-07 04:02:00,
2013-08-07 00:07:00,80.6,76.6,30.00,SE,125,1.0,7.0,88,0.00,,,0.00,meteohub,2013-08-07 04:07:00,
2013-08-07 00:12:00,80.6,76.3,30.00,SE,130,1.0,8.0,87,0.00,,,0.00,meteohub,2013-08-07 04:12:00,
2013-08-07 00:17:00,80.6,76.6,30.00,SE,130,0.0,8.0,88,0.00,,,0.00,meteohub,2013-08-07 04:17:00,
2013-08-07 00:22:00,80.4,76.5,30.00,SE,130,2.0,5.0,88,0.00,,,0.00,meteohub,2013-08-07 04:22:00,
2013-08-07 00:27:00,80.4,76.5,30.00,SE,130,0.0,5.0,88,0.00,,,0.00,meteohub,2013-08-07 04:27:00,
2013-08-07 00:32:00,80.4,76.5,30.00,SE,130,0.0,4.0,88,0.00,,,0.00,meteohub,2013-08-07 04:32:00,
2013-08-07 00:37:00,80.4,76.5,29.99,SE,130,0.0,4.0,88,0.00,,,0.00,meteohub,2013-08-07 04:37:00,
2013-08-07 00:42:00,80.2,76.3,29.99,SE,130,0.0,4.0,88,0.00,,,0.00,meteohub,2013-08-07 04:42:00,
2013-08-07 00:47:00,80.2,76.3,29.99,SE,130,1.0,4.0,88,0.00,,,0.00,meteohub,2013-08-07 04:47:00,
2013-08-07 00:52:00,80.2,76.3,29.99,SE,130,0.0,4.0,88,0.00,,,0.00,meteohub,2013-08-07 04:52:00,
2013-08-07 00:57:00,80.2,76.3,29.99,SE,130,0.0,3.0,88,0.00,,,0.00,meteohub,2013-08-07 04:57:00,
2013-08-07 01:02:00,80.2,76.3,29.99,SE,130,2.0,3.0,88,0.00,,,0.00,meteohub,2013-08-07 05:02:00,
2013-08-07 01:07:00,80.2,76.3,29.98,SE,130,1.0,4.0,88,0.00,,,0.00,meteohub,2013-08-07 05:07:00,
2013-08-07 01:12:00,80.2,76.3,29.98,SE,130,0.0,4.0,88,0.00,,,0.00,meteohub,2013-08-07 05:12:00,
2013-08-07 01:17:00,80.2,76.3,29.98,SE,130,0.0,4.0,88,0.00,,,0.00,meteohub,2013-08-07 05:17:00,
2013-08-07 01:22:00,80.1,76.1,29.98,SE,130,0.0,4.0,88,0.00,,,0.00,meteohub,2013-08-07 05:22:00,
2013-08-07 01:27:00,80.1,76.1,29.98,SE,130,0.0,4.0,88,0.00,,,0.00,meteohub,2013-08-07 05:27:00,
2013-08-07 01:32:00,80.1,76.1,29.98,SE,130,1.0,5.0,88,0.00,,,0.00,meteohub,2013-08-07 05:32:00,
2013-08-07 01:37:00,80.1,76.1,29.98,SE,130,4.0,5.0,88,0.00,,,0.00,meteohub,2013-08-07 05:37:00,
2013-08-07 01:42:00,80.1,76.1,29.98,SE,130,0.0,5.0,88,0.00,,,0.00,meteohub,2013-08-07 05:42:00,
2013-08-07 01:47:00,79.9,75.9,29.97,East,87,1.0,5.0,88,0.00,,,0.00,meteohub,2013-08-07 05:47:00,
2013-08-07 01:52:00,79.9,75.9,29.97,East,87,3.0,7.0,88,0.00,,,0.00,meteohub,2013-08-07 05:52:00,
2013-08-07 01:57:00,79.9,75.9,29.97,East,87,1.0,7.0,88,0.00,,,0.00,meteohub,2013-08-07 05:57:00,
2013-08-07 02:02:00,79.9,75.9,29.97,East,87,2.0,7.0,88,0.00,,,0.00,meteohub,2013-08-07 06:02:00,
2013-08-07 02:07:00,79.7,75.7,29.96,East,87,2.0,4.0,88,0.00,,,0.00,meteohub,2013-08-07 06:07:00,
2013-08-07 02:12:00,79.7,76.1,29.97,East,88,0.0,4.0,89,0.00,,,0.00,meteohub,2013-08-07 06:12:00,
2013-08-07 02:17:00,79.7,76.1,29.96,East,88,1.0,5.0,89,0.00,,,0.00,meteohub,2013-08-07 06:17:00,
2013-08-07 02:22:00,79.7,76.1,29.96,East,88,0.0,5.0,89,0.00,,,0.00,meteohub,2013-08-07 06:22:00,
2013-08-07 02:27:00,79.7,76.1,29.96,East,88,2.0,5.0,89,0.00,,,0.00,meteohub,2013-08-07 06:27:00,
2013-08-07 02:32:00,79.5,75.9,29.96,East,90,0.0,7.0,89,0.00,,,0.00,meteohub,2013-08-07 06:32:00,
2013-08-07 02:37:00,79.5,75.9,29.96,East,90,0.0,7.0,89,0.00,,,0.00,meteohub,2013-08-07 06:37:00,
2013-08-07 02:42:00,79.5,75.9,29.95,East,90,0.0,7.0,89,0.00,,,0.00,meteohub,2013-08-07 06:42:00,
2013-08-07 02:47:00,79.3,75.7,29.95,East,90,0.0,4.0,89,0.00,,,0.00,meteohub,2013-08-07 06:47:00,
2013-08-07 02:52:00,79.3,76.1,29.95,East,90,0.0,3.0,90,0.00,,,0.00,meteohub,2013-08-07 06:52:00,
2013-08-07 02:57:00,79.3,76.1,29.96,East,90,0.0,3.0,90,0.00,,,0.00,meteohub,2013-08-07 06:57:00,
2013-08-07 03:02:00,79.2,75.6,29.95,East,90,0.0,3.0,89,0.00,,,0.00,meteohub,2013-08-07 07:02:00,
2013-08-07 03:07:00,79.2,75.9,29.95,East,90,0.0,2.0,90,0.00,,,0.00,meteohub,2013-08-07 07:07:00,
2013-08-07 03:12:00,79.0,75.7,29.95,East,90,0.0,2.0,90,0.00,,,0.00,meteohub,2013-08-07 07:12:00,
2013-08-07 03:17:00,79.0,75.7,29.95,East,90,0.0,1.0,90,0.00,,,0.00,meteohub,2013-08-07 07:17:00,
2013-08-07 03:22:00,79.0,76.1,29.96,East,90,0.0,0.0,91,0.00,,,0.00,meteohub,2013-08-07 07:22:00,
2013-08-07 03:27:00,79.0,76.1,29.96,East,90,0.0,0.0,91,0.00,,,0.00,meteohub,2013-08-07 07:27:00,
2013-08-07 03:32:00,79.0,76.1,29.96,East,90,0.0,0.0,91,0.00,,,0.00,meteohub,2013-08-07 07:32:00,
2013-08-07 03:37:00,79.0,76.1,29.96,East,90,0.0,3.0,91,0.00,,,0.00,meteohub,2013-08-07 07:37:00,
2013-08-07 03:42:00,79.2,76.3,29.95,East,90,0.0,3.0,91,0.00,,,0.00,meteohub,2013-08-07 07:42:00,
2013-08-07 03:47:00,79.2,76.3,29.95,East,90,1.0,4.0,91,0.00,,,0.00,meteohub,2013-08-07 07:47:00,
2013-08-07 03:52:00,79.3,76.1,29.95,East,90,0.0,6.0,90,0.00,,,0.00,meteohub,2013-08-07 07:52:00,
2013-08-07 03:57:00,79.3,76.1,29.95,East,90,0.0,6.0,90,0.00,,,0.00,meteohub,2013-08-07 07:57:00,
2013-08-07 04:02:00,79.3,76.1,29.95,East,90,2.0,6.0,90,0.00,,,0.00,meteohub,2013-08-07 08:02:00,
2013-08-07 04:07:00,79.3,76.1,29.95,East,90,2.0,6.0,90,0.00,,,0.00,meteohub,2013-08-07 08:07:00,
2013-08-07 04:12:00,79.5,76.3,29.95,East,90,1.0,6.0,90,0.00,,,0.00,meteohub,2013-08-07 08:12:00,
2013-08-07 04:17:00,79.5,76.3,29.95,East,90,1.0,6.0,90,0.00,,,0.00,meteohub,2013-08-07 08:17:00,
2013-08-07 04:22:00,79.5,76.3,29.95,East,90,0.0,4.0,90,0.00,,,0.00,meteohub,2013-08-07 08:22:00,
2013-08-07 04:27:00,79.5,76.3,29.95,East,90,0.0,4.0,90,0.00,,,0.00,meteohub,2013-08-07 08:27:00,
2013-08-07 04:32:00,79.3,76.1,29.95,East,90,2.0,4.0,90,0.00,,,0.00,meteohub,2013-08-07 08:32:00,
2013-08-07 04:37:00,79.3,76.1,29.95,East,90,2.0,4.0,90,0.00,,,0.00,meteohub,2013-08-07 08:37:00,
2013-08-07 04:42:00,79.3,76.1,29.95,East,90,0.0,3.0,90,0.00,,,0.00,meteohub,2013-08-07 08:42:00,
2013-08-07 04:47:00,79.3,75.7,29.96,East,90,0.0,4.0,89,0.00,,,0.00,meteohub,2013-08-07 08:47:00,
2013-08-07 04:52:00,79.3,76.1,29.96,East,90,0.0,4.0,90,0.00,,,0.00,meteohub,2013-08-07 08:52:00,
2013-08-07 04:57:00,79.3,76.1,29.96,East,90,0.0,6.0,90,0.00,,,0.00,meteohub,2013-08-07 08:57:00,
2013-08-07 05:02:00,79.3,76.1,29.96,East,90,2.0,6.0,90,0.00,,,0.00,meteohub,2013-08-07 09:02:00,
2013-08-07 05:07:00,79.5,75.9,29.96,East,90,0.0,6.0,89,0.00,,,0.00,meteohub,2013-08-07 09:07:00,
2013-08-07 05:12:00,79.5,75.9,29.96,East,90,0.0,8.0,89,0.00,,,0.00,meteohub,2013-08-07 09:12:00,
2013-08-07 05:17:00,79.5,75.9,29.96,East,90,1.0,8.0,89,0.00,,,0.00,meteohub,2013-08-07 09:17:00,
2013-08-07 05:22:00,79.5,75.9,29.96,East,90,3.0,8.0,89,0.00,,,0.00,meteohub,2013-08-07 09:22:00,
2013-08-07 05:27:00,79.5,76.3,29.96,East,90,3.0,6.0,90,0.00,,,0.00,meteohub,2013-08-07 09:27:00,
2013-08-07 05:32:00,79.5,75.9,29.96,East,90,1.0,6.0,89,0.00,,,0.00,meteohub,2013-08-07 09:32:00,
2013-08-07 05:37:00,79.5,76.3,29.96,East,90,2.0,6.0,90,0.00,,,0.00,meteohub,2013-08-07 09:37:00,
2013-08-07 05:42:00,79.5,76.3,29.96,East,90,2.0,6.0,90,0.00,,,0.00,meteohub,2013-08-07 09:42:00,
2013-08-07 05:47:00,79.5,76.3,29.96,East,90,0.0,6.0,90,0.00,,,0.00,meteohub,2013-08-07 09:47:00,
2013-08-07 05:52:00,79.3,76.1,29.96,East,90,3.0,6.0,90,0.00,,,0.00,meteohub,2013-08-07 09:52:00,
2013-08-07 05:57:00,79.3,76.1,29.97,East,90,4.0,6.0,90,0.00,,,0.00,meteohub,2013-08-07 09:57:00,
2013-08-07 06:02:00,79.3,76.1,29.97,East,90,0.0,4.0,90,0.00,,,0.00,meteohub,2013-08-07 10:02:00,
2013-08-07 06:07:00,79.3,76.1,29.97,East,90,3.0,4.0,90,0.00,,,0.00,meteohub,2013-08-07 10:07:00,
2013-08-07 06:12:00,79.3,75.7,29.97,East,90,1.0,6.0,89,0.00,,,0.00,meteohub,2013-08-07 10:12:00,
2013-08-07 06:17:00,79.3,76.1,29.97,East,90,0.0,6.0,90,0.00,,,0.00,meteohub,2013-08-07 10:17:00,
2013-08-07 06:22:00,79.3,75.7,29.97,East,90,0.0,6.0,89,0.00,,,0.00,meteohub,2013-08-07 10:22:00,
2013-08-07 06:27:00,79.3,75.7,29.97,East,90,0.0,4.0,89,0.00,,,0.00,meteohub,2013-08-07 10:27:00,
2013-08-07 06:32:00,79.3,75.7,29.97,East,90,0.0,4.0,89,0.00,,,0.00,meteohub,2013-08-07 10:32:00,
2013-08-07 06:37:00,79.3,75.7,29.97,East,90,0.0,6.0,89,0.00,,,0.00,meteohub,2013-08-07 10:37:00,
2013-08-07 06:42:00,79.2,75.9,29.97,East,90,2.0,6.0,90,0.00,,,0.00,meteohub,2013-08-07 10:42:00,
2013-08-07 06:47:00,79.2,75.9,29.97,East,90,0.0,6.0,90,0.00,,,0.00,meteohub,2013-08-07 10:47:00,
2013-08-07 06:52:00,79.2,75.9,29.97,East,90,4.0,4.0,90,0.00,,,0.00,meteohub,2013-08-07 10:52:00,
2013-08-07 06:57:00,79.0,75.4,29.97,East,90,0.0,4.0,89,0.00,,,0.00,meteohub,2013-08-07 10:57:00,
2013-08-07 07:02:00,79.0,75.4,29.98,East,90,0.0,4.0,89,0.00,,,0.00,meteohub,2013-08-07 11:02:00,
2013-08-07 07:07:00,79.0,75.7,29.98,East,90,0.0,6.0,90,0.00,,,0.00,meteohub,2013-08-07 11:07:00,
2013-08-07 07:12:00,79.0,75.7,29.98,East,90,1.0,6.0,90,0.00,,,0.00,meteohub,2013-08-07 11:12:00,
2013-08-07 07:17:00,79.0,75.7,29.98,East,90,3.0,4.0,90,0.00,,,0.00,meteohub,2013-08-07 11:17:00,
2013-08-07 07:22:00,79.2,75.6,29.98,East,90,1.0,6.0,89,0.00,,,0.00,meteohub,2013-08-07 11:22:00,
2013-08-07 07:27:00,79.2,75.9,29.98,East,90,0.0,7.0,90,0.00,,,0.00,meteohub,2013-08-07 11:27:00,
2013-08-07 07:32:00,79.3,75.7,29.98,East,90,1.0,7.0,89,0.00,,,0.00,meteohub,2013-08-07 11:32:00,
2013-08-07 07:37:00,79.5,75.9,29.98,East,90,1.0,7.0,89,0.00,,,0.00,meteohub,2013-08-07 11:37:00,
2013-08-07 07:42:00,79.5,75.9,29.98,East,90,0.0,4.0,89,0.00,,,0.00,meteohub,2013-08-07 11:42:00,
2013-08-07 07:47:00,79.9,76.3,29.98,East,90,0.0,4.0,89,0.00,,,0.00,meteohub,2013-08-07 11:47:00,
2013-08-07 07:52:00,79.9,76.3,29.98,East,90,2.0,4.0,89,0.00,,,0.00,meteohub,2013-08-07 11:52:00,
2013-08-07 07:57:00,80.1,76.1,29.99,East,90,2.0,6.0,88,0.00,,,0.00,meteohub,2013-08-07 11:57:00,
2013-08-07 08:02:00,80.2,76.3,29.99,East,90,1.0,6.0,88,0.00,,,0.00,meteohub,2013-08-07 12:02:00,
2013-08-07 08:07:00,80.4,76.1,29.99,East,90,3.0,6.0,87,0.00,,,0.00,meteohub,2013-08-07 12:07:00,
2013-08-07 08:12:00,80.8,76.3,29.99,East,92,1.0,7.0,86,0.00,,,0.00,meteohub,2013-08-07 12:12:00,
2013-08-07 08:17:00,81.1,76.3,29.99,SE,124,4.0,8.0,85,0.00,,,0.00,meteohub,2013-08-07 12:17:00,
2013-08-07 08:22:00,81.3,76.1,29.99,East,89,7.0,8.0,84,0.00,,,0.00,meteohub,2013-08-07 12:22:00,
2013-08-07 08:27:00,81.7,76.3,29.99,East,90,4.0,10.0,84,0.00,,,0.00,meteohub,2013-08-07 12:27:00,
2013-08-07 08:32:00,81.7,75.9,30.00,ESE,105,6.0,11.0,83,0.00,,,0.00,meteohub,2013-08-07 12:32:00,
2013-08-07 08:37:00,81.9,76.8,30.00,East,86,2.0,11.0,85,0.00,,,0.00,meteohub,2013-08-07 12:37:00,
2013-08-07 08:42:00,82.0,76.6,30.00,ENE,69,5.0,11.0,84,0.00,,,0.00,meteohub,2013-08-07 12:42:00,
2013-08-07 08:47:00,82.2,77.2,30.00,NE,55,4.0,10.0,85,0.00,,,0.00,meteohub,2013-08-07 12:47:00,
2013-08-07 08:52:00,82.6,76.5,30.01,East,86,4.0,8.0,82,0.00,,,0.00,meteohub,2013-08-07 12:52:00,
2013-08-07 08:57:00,82.8,76.6,30.00,ESE,111,4.0,10.0,82,0.00,,,0.00,meteohub,2013-08-07 12:57:00,
2013-08-07 09:02:00,82.8,76.6,30.00,ENE,78,2.0,10.0,82,0.00,,,0.00,meteohub,2013-08-07 13:02:00,
2013-08-07 09:07:00,82.9,76.8,30.00,East,98,8.0,10.0,82,0.00,,,0.00,meteohub,2013-08-07 13:07:00,
2013-08-07 09:12:00,83.1,77.0,30.00,ENE,65,9.0,10.0,82,0.00,,,0.00,meteohub,2013-08-07 13:12:00,
2013-08-07 09:17:00,83.5,77.0,30.00,East,98,2.0,11.0,81,0.00,,,0.00,meteohub,2013-08-07 13:17:00,
2013-08-07 09:22:00,83.8,77.7,30.00,East,82,4.0,11.0,82,0.00,,,0.00,meteohub,2013-08-07 13:22:00,
2013-08-07 09:27:00,84.4,77.2,30.00,East,98,3.0,11.0,79,0.00,,,0.00,meteohub,2013-08-07 13:27:00,
2013-08-07 09:32:00,84.9,77.7,30.00,East,90,10.0,10.0,79,0.00,,,0.00,meteohub,2013-08-07 13:32:00,
2013-08-07 09:37:00,85.1,77.5,30.01,East,93,3.0,10.0,78,0.00,,,0.00,meteohub,2013-08-07 13:37:00,
2013-08-07 09:42:00,85.5,78.3,30.01,East,93,10.0,13.0,79,0.00,,,0.00,meteohub,2013-08-07 13:42:00,
2013-08-07 09:47:00,85.6,77.9,30.01,East,93,4.0,13.0,78,0.00,,,0.00,meteohub,2013-08-07 13:47:00,
2013-08-07 09:52:00,85.8,77.7,30.01,ESE,113,4.0,11.0,77,0.00,,,0.00,meteohub,2013-08-07 13:52:00,
2013-08-07 09:57:00,85.6,77.5,30.01,ESE,109,2.0,11.0,77,0.00,,,0.00,meteohub,2013-08-07 13:57:00,
2013-08-07 10:02:00,85.8,77.7,30.01,SSE,151,3.0,11.0,77,0.00,,,0.00,meteohub,2013-08-07 14:02:00,
2013-08-07 10:07:00,86.2,78.1,30.01,East,100,2.0,14.0,77,0.00,,,0.00,meteohub,2013-08-07 14:07:00,
2013-08-07 10:12:00,85.8,77.4,30.01,ESE,103,3.0,14.0,76,0.00,,,0.00,meteohub,2013-08-07 14:12:00,
2013-08-07 10:17:00,85.6,77.2,30.01,SE,139,4.0,13.0,76,0.00,,,0.00,meteohub,2013-08-07 14:17:00,
2013-08-07 10:22:00,85.6,77.9,30.01,SE,130,4.0,13.0,78,0.00,,,0.00,meteohub,2013-08-07 14:22:00,
2013-08-07 10:27:00,86.0,77.5,30.01,East,96,9.0,13.0,76,0.00,,,0.00,meteohub,2013-08-07 14:27:00,
2013-08-07 10:32:00,86.0,77.9,30.01,ENE,61,6.0,13.0,77,0.00,,,0.00,meteohub,2013-08-07 14:32:00,
2013-08-07 10:37:00,85.6,77.9,30.01,ESE,107,7.0,13.0,78,0.00,,,0.00,meteohub,2013-08-07 14:37:00,
2013-08-07 10:42:00,85.5,77.0,30.01,SE,134,2.0,13.0,76,0.00,,,0.00,meteohub,2013-08-07 14:42:00,
2013-08-07 10:47:00,85.3,78.4,30.01,SE,133,4.0,13.0,80,0.00,,,0.00,meteohub,2013-08-07 14:47:00,
2013-08-07 10:52:00,85.3,78.1,30.02,ENE,75,10.0,12.0,79,0.00,,,0.00,meteohub,2013-08-07 14:52:00,
2013-08-07 10:57:00,85.3,78.4,30.01,SE,138,4.0,12.0,80,0.00,,,0.00,meteohub,2013-08-07 14:57:00,
2013-08-07 11:02:00,85.3,78.4,30.02,East,79,1.0,10.0,80,0.00,,,0.00,meteohub,2013-08-07 15:02:00,
2013-08-07 11:12:00,85.1,77.5,30.02,East,95,4.0,13.0,78,0.00,,,0.00,meteohub,2013-08-07 15:12:00,
2013-08-07 11:17:00,84.9,78.1,30.02,East,93,7.0,13.0,80,0.00,,,0.00,meteohub,2013-08-07 15:17:00,
2013-08-07 11:22:00,84.9,77.7,30.02,ESE,104,3.0,11.0,79,0.00,,,0.00,meteohub,2013-08-07 15:22:00,
2013-08-07 11:27:00,84.9,78.1,30.02,East,92,3.0,11.0,80,0.00,,,0.00,meteohub,2013-08-07 15:27:00,
2013-08-07 11:32:00,85.5,77.7,30.02,East,80,3.0,9.0,78,0.00,,,0.00,meteohub,2013-08-07 15:32:00,
2013-08-07 11:37:00,85.8,78.6,30.02,East,98,3.0,10.0,79,0.00,,,0.00,meteohub,2013-08-07 15:37:00,
2013-08-07 11:42:00,86.5,78.4,30.02,NE,47,2.0,10.0,77,0.00,,,0.00,meteohub,2013-08-07 15:42:00,
2013-08-07 11:47:00,86.7,77.9,30.02,ENE,65,3.0,13.0,75,0.00,,,0.00,meteohub,2013-08-07 15:47:00,
2013-08-07 11:52:00,86.7,77.4,30.02,ENE,71,2.0,13.0,74,0.00,,,0.00,meteohub,2013-08-07 15:52:00,
2013-08-07 11:57:00,86.5,77.7,30.02,ESE,106,11.0,13.0,75,0.00,,,0.00,meteohub,2013-08-07 15:57:00,
2013-08-07 12:02:00,86.5,78.1,30.01,East,86,3.0,13.0,76,0.00,,,0.00,meteohub,2013-08-07 16:02:00,
2013-08-07 12:07:00,86.9,78.1,30.01,ESE,104,4.0,13.0,75,0.00,,,0.00,meteohub,2013-08-07 16:07:00,
2013-08-07 12:12:00,87.3,78.4,30.01,ENE,78,3.0,13.0,75,0.00,,,0.00,meteohub,2013-08-07 16:12:00,
2013-08-07 12:17:00,87.4,78.1,30.01,NNE,17,5.0,15.0,74,0.00,,,0.00,meteohub,2013-08-07 16:17:00,
2013-08-07 12:22:00,88.0,77.4,30.01,SE,134,3.0,15.0,71,0.00,,,0.00,meteohub,2013-08-07 16:22:00,
2013-08-07 12:27:00,88.2,78.8,30.01,ESE,105,3.0,11.0,74,0.00,,,0.00,meteohub,2013-08-07 16:27:00,
2013-08-07 12:32:00,88.3,76.8,30.01,SE,130,5.0,10.0,69,0.00,,,0.00,meteohub,2013-08-07 16:32:00,
2013-08-07 12:37:00,88.5,77.9,30.01,SE,141,8.0,14.0,71,0.00,,,0.00,meteohub,2013-08-07 16:37:00,
2013-08-07 12:42:00,88.7,77.2,30.01,East,80,5.0,14.0,69,0.00,,,0.00,meteohub,2013-08-07 16:42:00,
2013-08-07 12:47:00,88.3,77.4,30.01,SE,141,7.0,14.0,70,0.00,,,0.00,meteohub,2013-08-07 16:47:00,
2013-08-07 12:52:00,88.2,79.2,30.01,SE,129,7.0,12.0,75,0.00,,,0.00,meteohub,2013-08-07 16:52:00,
2013-08-07 12:57:00,88.2,76.6,30.01,ENE,76,8.0,12.0,69,0.00,,,0.00,meteohub,2013-08-07 16:57:00,
2013-08-07 13:02:00,88.3,77.7,30.01,East,88,11.0,12.0,71,0.00,,,0.00,meteohub,2013-08-07 17:02:00,
2013-08-07 13:07:00,88.5,77.5,30.01,SSE,150,10.0,12.0,70,0.00,,,0.00,meteohub,2013-08-07 17:07:00,
2013-08-07 13:12:00,88.5,76.6,30.01,ESE,107,3.0,13.0,68,0.00,,,0.00,meteohub,2013-08-07 17:12:00,
2013-08-07 13:17:00,88.5,76.6,30.01,East,91,2.0,13.0,68,0.00,,,0.00,meteohub,2013-08-07 17:17:00,
2013-08-07 13:22:00,88.9,78.6,30.01,ESE,105,3.0,13.0,72,0.00,,,0.00,meteohub,2013-08-07 17:22:00,
2013-08-07 13:27:00,88.5,76.6,30.01,SE,143,5.0,11.0,68,0.00,,,0.00,meteohub,2013-08-07 17:27:00,
2013-08-07 13:32:00,88.2,77.5,30.01,SE,135,1.0,10.0,71,0.00,,,0.00,meteohub,2013-08-07 17:32:00,
2013-08-07 13:37:00,88.0,78.3,30.01,East,100,10.0,11.0,73,0.00,,,0.00,meteohub,2013-08-07 17:37:00,
2013-08-07 13:42:00,88.0,78.6,30.01,ENE,65,3.0,14.0,74,0.00,,,0.00,meteohub,2013-08-07 17:42:00,
2013-08-07 13:47:00,88.3,78.6,30.01,East,98,9.0,14.0,73,0.00,,,0.00,meteohub,2013-08-07 17:47:00,
2013-08-07 13:52:00,88.3,78.1,30.02,East,94,7.0,14.0,72,0.00,,,0.00,meteohub,2013-08-07 17:52:00,
2013-08-07 13:57:00,88.2,77.9,30.02,ESE,121,4.0,13.0,72,0.00,,,0.00,meteohub,2013-08-07 17:57:00,
2013-08-07 14:02:00,88.0,77.9,30.02,ESE,103,2.0,13.0,72,0.00,,,0.00,meteohub,2013-08-07 18:02:00,
2013-08-07 14:07:00,87.6,77.5,30.02,East,100,2.0,15.0,72,0.00,,,0.00,meteohub,2013-08-07 18:07:00,
2013-08-07 14:12:00,87.6,78.3,30.02,East,88,10.0,15.0,74,0.00,,,0.00,meteohub,2013-08-07 18:12:00,
2013-08-07 14:17:00,87.6,77.9,30.01,East,86,7.0,15.0,73,0.00,,,0.00,meteohub,2013-08-07 18:17:00,
2013-08-07 14:22:00,87.6,78.3,30.01,NE,53,6.0,12.0,74,0.00,,,0.00,meteohub,2013-08-07 18:22:00,
2013-08-07 14:27:00,88.3,77.7,30.01,ENE,57,9.0,11.0,71,0.00,,,0.00,meteohub,2013-08-07 18:27:00,
2013-08-07 14:32:00,88.3,78.1,30.01,ESE,122,3.0,14.0,72,0.00,,,0.00,meteohub,2013-08-07 18:32:00,
2013-08-07 14:37:00,88.5,78.3,30.01,East,82,8.0,14.0,72,0.00,,,0.00,meteohub,2013-08-07 18:37:00,
2013-08-07 14:42:00,88.9,79.2,30.01,ESE,104,3.0,14.0,73,0.00,,,0.00,meteohub,2013-08-07 18:42:00,
2013-08-07 14:47:00,88.7,78.1,30.01,SE,133,3.0,11.0,71,0.00,,,0.00,meteohub,2013-08-07 18:47:00,
2013-08-07 14:52:00,88.3,77.7,30.00,East,88,5.0,12.0,71,0.00,,,0.00,meteohub,2013-08-07 18:52:00,
2013-08-07 14:57:00,87.6,77.5,30.00,East,80,1.0,12.0,72,0.00,,,0.00,meteohub,2013-08-07 18:57:00,
2013-08-07 15:02:00,87.6,78.6,30.00,ESE,117,6.0,12.0,75,0.00,,,0.00,meteohub,2013-08-07 19:02:00,
2013-08-07 15:07:00,88.0,78.3,30.00,ESE,111,4.0,11.0,73,0.00,,,0.00,meteohub,2013-08-07 19:07:00,
2013-08-07 15:12:00,88.0,78.3,29.99,ESE,112,6.0,11.0,73,0.00,,,0.00,meteohub,2013-08-07 19:12:00,
2013-08-07 15:17:00,88.3,78.1,29.99,NE,36,6.0,12.0,72,0.00,,,0.00,meteohub,2013-08-07 19:17:00,
2013-08-07 15:22:00,88.7,78.4,29.99,East,84,3.0,12.0,72,0.00,,,0.00,meteohub,2013-08-07 19:22:00,
2013-08-07 15:27:00,88.0,78.3,29.98,ESE,117,4.0,12.0,73,0.00,,,0.00,meteohub,2013-08-07 19:27:00,
2013-08-07 15:32:00,87.4,77.7,29.98,East,97,8.0,11.0,73,0.00,,,0.00,meteohub,2013-08-07 19:32:00,
2013-08-07 15:37:00,87.4,79.3,29.99,East,98,8.0,11.0,77,0.00,,,0.00,meteohub,2013-08-07 19:37:00,
2013-08-07 15:42:00,87.6,78.3,29.98,NNE,29,3.0,11.0,74,0.00,,,0.00,meteohub,2013-08-07 19:42:00,
2013-08-07 15:47:00,87.4,78.1,29.98,NE,40,2.0,11.0,74,0.00,,,0.00,meteohub,2013-08-07 19:47:00,
2013-08-07 15:52:00,87.4,78.6,29.98,East,93,1.0,10.0,75,0.00,,,0.00,meteohub,2013-08-07 19:52:00,
2013-08-07 15:57:00,88.0,78.6,29.98,ESE,107,4.0,10.0,74,0.00,,,0.00,meteohub,2013-08-07 19:57:00,
2013-08-07 16:02:00,88.2,77.9,29.97,East,82,3.0,11.0,72,0.00,,,0.00,meteohub,2013-08-07 20:02:00,
2013-08-07 16:07:00,88.3,79.0,29.98,SSE,149,4.0,11.0,74,0.00,,,0.00,meteohub,2013-08-07 20:07:00,
2013-08-07 16:12:00,88.3,77.7,29.97,ENE,57,1.0,11.0,71,0.00,,,0.00,meteohub,2013-08-07 20:12:00,
2013-08-07 16:17:00,88.3,78.1,29.97,SE,128,4.0,10.0,72,0.00,,,0.00,meteohub,2013-08-07 20:17:00,
2013-08-07 16:22:00,87.6,78.3,29.98,SE,124,2.0,10.0,74,0.00,,,0.00,meteohub,2013-08-07 20:22:00,
2013-08-07 16:27:00,87.6,77.5,29.97,East,79,8.0,12.0,72,0.00,,,0.00,meteohub,2013-08-07 20:27:00,
2013-08-07 16:32:00,87.4,78.1,29.97,East,90,8.0,12.0,74,0.00,,,0.00,meteohub,2013-08-07 20:32:00,
2013-08-07 16:37:00,87.4,78.1,29.97,SSE,147,3.0,11.0,74,0.00,,,0.00,meteohub,2013-08-07 20:37:00,
2013-08-07 16:42:00,87.6,77.0,29.97,NE,55,4.0,11.0,71,0.00,,,0.00,meteohub,2013-08-07 20:42:00,
2013-08-07 16:47:00,87.6,76.1,29.98,East,82,3.0,10.0,69,0.00,,,0.00,meteohub,2013-08-07 20:47:00,
2013-08-07 16:52:00,87.4,75.9,29.98,East,89,3.0,10.0,69,0.00,,,0.00,meteohub,2013-08-07 20:52:00,
2013-08-07 16:57:00,87.4,76.8,29.98,ESE,121,4.0,10.0,71,0.00,,,0.00,meteohub,2013-08-07 20:57:00,
2013-08-07 17:02:00,87.3,76.6,29.98,East,90,6.0,10.0,71,0.00,,,0.00,meteohub,2013-08-07 21:02:00,
2013-08-07 17:07:00,87.3,76.3,29.98,East,98,2.0,10.0,70,0.00,,,0.00,meteohub,2013-08-07 21:07:00,
2013-08-07 17:12:00,87.1,77.0,29.98,ESE,106,2.0,10.0,72,0.00,,,0.00,meteohub,2013-08-07 21:12:00,
2013-08-07 17:17:00,87.3,77.5,29.98,ENE,67,2.0,8.0,73,0.00,,,0.00,meteohub,2013-08-07 21:17:00,
2013-08-07 17:22:00,87.4,77.4,29.98,East,99,3.0,8.0,72,0.00,,,0.00,meteohub,2013-08-07 21:22:00,
2013-08-07 17:27:00,87.4,76.5,29.98,ENE,71,3.0,9.0,70,0.00,,,0.00,meteohub,2013-08-07 21:27:00,
2013-08-07 17:32:00,87.4,76.5,29.97,SE,143,8.0,12.0,70,0.00,,,0.00,meteohub,2013-08-07 21:32:00,
2013-08-07 17:37:00,87.1,76.1,29.97,SSE,150,2.0,12.0,70,0.00,,,0.00,meteohub,2013-08-07 21:37:00,
2013-08-07 17:47:00,87.1,77.4,29.96,East,94,4.0,12.0,73,0.00,,,0.00,meteohub,2013-08-07 21:47:00,
2013-08-07 17:52:00,86.9,76.8,29.96,East,94,7.0,9.0,72,0.00,,,0.00,meteohub,2013-08-07 21:52:00,
2013-08-07 17:57:00,86.5,76.8,29.96,NE,45,3.0,11.0,73,0.00,,,0.00,meteohub,2013-08-07 21:57:00,
2013-08-07 18:02:00,86.4,77.0,29.96,ENE,70,2.0,11.0,74,0.00,,,0.00,meteohub,2013-08-07 22:02:00,
2013-08-07 18:07:00,86.5,77.2,29.96,NE,41,3.0,11.0,74,0.00,,,0.00,meteohub,2013-08-07 22:07:00,
2013-08-07 18:12:00,86.5,77.2,29.96,ESE,119,7.0,12.0,74,0.00,,,0.00,meteohub,2013-08-07 22:12:00,
2013-08-07 18:17:00,86.4,77.5,29.96,ENE,69,2.0,12.0,75,0.00,,,0.00,meteohub,2013-08-07 22:17:00,
2013-08-07 18:22:00,86.2,77.7,29.96,East,95,4.0,12.0,76,0.00,,,0.00,meteohub,2013-08-07 22:22:00,
2013-08-07 18:27:00,86.0,77.5,29.96,East,90,7.0,12.0,76,0.00,,,0.00,meteohub,2013-08-07 22:27:00,
2013-08-07 18:32:00,85.6,77.2,29.96,East,92,10.0,13.0,76,0.00,,,0.00,meteohub,2013-08-07 22:32:00,
2013-08-07 18:37:00,85.5,77.4,29.96,ESE,111,6.0,13.0,77,0.00,,,0.00,meteohub,2013-08-07 22:37:00,
2013-08-07 18:42:00,85.1,77.5,29.96,ESE,115,8.0,13.0,78,0.00,,,0.00,meteohub,2013-08-07 22:42:00,
2013-08-07 18:47:00,84.7,77.2,29.97,ENE,66,4.0,12.0,78,0.00,,,0.00,meteohub,2013-08-07 22:47:00,
2013-08-07 18:52:00,84.6,77.0,29.97,ENE,65,8.0,11.0,78,0.00,,,0.00,meteohub,2013-08-07 22:52:00,
2013-08-07 18:57:00,84.4,77.2,29.97,East,85,2.0,11.0,79,0.00,,,0.00,meteohub,2013-08-07 22:57:00,
2013-08-07 19:02:00,84.0,76.8,29.98,ENE,65,5.0,11.0,79,0.00,,,0.00,meteohub,2013-08-07 23:02:00,
2013-08-07 19:07:00,83.8,77.0,29.97,ESE,121,2.0,11.0,80,0.00,,,0.00,meteohub,2013-08-07 23:07:00,
2013-08-07 19:12:00,83.5,76.3,29.98,ENE,68,3.0,8.0,79,0.00,,,0.00,meteohub,2013-08-07 23:12:00,
2013-08-07 19:17:00,83.1,76.6,29.98,East,89,2.0,10.0,81,0.00,,,0.00,meteohub,2013-08-07 23:17:00,
2013-08-07 19:22:00,82.8,76.6,29.98,ENE,78,7.0,10.0,82,0.00,,,0.00,meteohub,2013-08-07 23:22:00,
2013-08-07 19:27:00,82.6,76.5,29.98,ESE,118,3.0,9.0,82,0.00,,,0.00,meteohub,2013-08-07 23:27:00,
2013-08-07 19:32:00,82.2,76.1,29.99,ENE,78,4.0,10.0,82,0.00,,,0.00,meteohub,2013-08-07 23:32:00,
2013-08-07 19:37:00,82.0,76.3,29.98,ESE,106,4.0,10.0,83,0.00,,,0.00,meteohub,2013-08-07 23:37:00,
2013-08-07 19:42:00,82.0,76.6,29.98,East,97,6.0,10.0,84,0.00,,,0.00,meteohub,2013-08-07 23:42:00,
2013-08-07 19:52:00,81.7,76.3,29.98,ENE,73,3.0,10.0,84,0.00,,,0.00,meteohub,2013-08-07 23:52:00,
2013-08-07 19:57:00,81.7,75.9,29.98,East,89,0.0,10.0,83,0.00,,,0.00,meteohub,2013-08-07 23:57:00,
2013-08-07 20:02:00,81.5,76.3,29.98,ESE,102,0.0,10.0,84,0.00,,,0.00,meteohub,2013-08-08 00:02:00,
2013-08-07 20:07:00,81.3,76.1,29.98,ESE,102,3.0,9.0,84,0.00,,,0.00,meteohub,2013-08-08 00:07:00,
2013-08-07 20:12:00,81.3,76.6,29.99,ESE,102,1.0,9.0,86,0.00,,,0.00,meteohub,2013-08-08 00:12:00,
2013-08-07 20:17:00,81.1,76.3,29.99,ESE,102,0.0,6.0,85,0.00,,,0.00,meteohub,2013-08-08 00:17:00,
2013-08-07 20:22:00,81.0,76.1,29.99,ENE,78,5.0,5.0,85,0.00,,,0.00,meteohub,2013-08-08 00:22:00,
2013-08-07 20:27:00,81.0,76.1,29.99,East,88,0.0,6.0,85,0.00,,,0.00,meteohub,2013-08-08 00:27:00,
2013-08-07 20:32:00,80.8,76.3,29.98,East,88,1.0,6.0,86,0.00,,,0.00,meteohub,2013-08-08 00:32:00,
2013-08-07 20:37:00,80.6,76.3,29.98,East,98,2.0,6.0,87,0.00,,,0.00,meteohub,2013-08-08 00:37:00,
2013-08-07 20:42:00,80.4,76.5,29.98,East,98,0.0,6.0,88,0.00,,,0.00,meteohub,2013-08-08 00:42:00,
2013-08-07 20:47:00,80.4,76.1,29.98,East,96,0.0,6.0,87,0.00,,,0.00,meteohub,2013-08-08 00:47:00,
2013-08-07 20:52:00,80.2,76.1,29.98,East,96,0.0,6.0,87,0.00,,,0.00,meteohub,2013-08-08 00:52:00,
2013-08-07 20:57:00,80.2,76.3,29.98,East,96,0.0,6.0,88,0.00,,,0.00,meteohub,2013-08-08 00:57:00,
2013-08-07 21:07:00,80.2,76.6,29.99,East,96,0.0,4.0,89,0.00,,,0.00,meteohub,2013-08-08 01:07:00,
2013-08-07 21:12:00,80.1,76.1,29.98,East,96,1.0,4.0,88,0.00,,,0.00,meteohub,2013-08-08 01:12:00,
2013-08-07 21:17:00,80.1,76.5,29.99,East,96,0.0,4.0,89,0.00,,,0.00,meteohub,2013-08-08 01:17:00,
2013-08-07 21:22:00,80.1,76.5,29.99,East,96,2.0,4.0,89,0.00,,,0.00,meteohub,2013-08-08 01:22:00,
2013-08-07 21:27:00,80.1,76.5,29.99,East,96,0.0,4.0,89,0.00,,,0.00,meteohub,2013-08-08 01:27:00,
2013-08-07 21:32:00,80.1,76.8,29.99,East,96,0.0,4.0,90,0.00,,,0.00,meteohub,2013-08-08 01:32:00,
2013-08-07 21:37:00,79.9,76.3,29.99,East,96,0.0,4.0,89,0.00,,,0.00,meteohub,2013-08-08 01:37:00,
2013-08-07 21:42:00,79.9,76.3,29.99,East,96,0.0,1.0,89,0.00,,,0.00,meteohub,2013-08-08 01:42:00,
2013-08-07 21:47:00,79.9,76.6,29.99,East,96,0.0,1.0,90,0.00,,,0.00,meteohub,2013-08-08 01:47:00,
2013-08-07 21:52:00,79.7,76.1,29.99,East,96,0.0,1.0,89,0.00,,,0.00,meteohub,2013-08-08 01:52:00,
2013-08-07 21:57:00,79.7,76.5,29.99,East,96,0.0,2.0,90,0.00,,,0.00,meteohub,2013-08-08 01:57:00,
2013-08-07 22:02:00,79.5,76.3,29.99,East,96,0.0,2.0,90,0.00,,,0.00,meteohub,2013-08-08 02:02:00,
2013-08-07 22:07:00,79.5,75.9,29.99,East,96,0.0,2.0,89,0.00,,,0.00,meteohub,2013-08-08 02:07:00,
2013-08-07 22:12:00,79.3,75.7,29.99,East,96,0.0,3.0,89,0.00,,,0.00,meteohub,2013-08-08 02:12:00,
2013-08-07 22:17:00,79.3,76.1,30.00,East,96,0.0,3.0,90,0.00,,,0.00,meteohub,2013-08-08 02:17:00,
2013-08-07 22:22:00,79.5,76.3,29.99,East,96,0.0,6.0,90,0.00,,,0.00,meteohub,2013-08-08 02:22:00,
2013-08-07 22:27:00,79.3,76.1,30.00,East,96,0.0,6.0,90,0.00,,,0.00,meteohub,2013-08-08 02:27:00,
2013-08-07 22:32:00,79.3,76.1,30.00,East,96,0.0,6.0,90,0.00,,,0.00,meteohub,2013-08-08 02:32:00,
2013-08-07 22:37:00,79.3,76.1,30.00,East,96,1.0,6.0,90,0.00,,,0.00,meteohub,2013-08-08 02:37:00,
2013-08-07 22:42:00,79.3,76.1,30.01,East,96,0.0,4.0,90,0.00,,,0.00,meteohub,2013-08-08 02:42:00,
2013-08-07 22:47:00,79.3,76.1,30.01,East,96,0.0,3.0,90,0.00,,,0.00,meteohub,2013-08-08 02:47:00,
2013-08-07 22:52:00,79.3,76.1,30.00,East,96,3.0,3.0,90,0.00,,,0.00,meteohub,2013-08-08 02:52:00,
2013-08-07 22:57:00,79.2,75.9,30.00,East,96,0.0,4.0,90,0.00,,,0.00,meteohub,2013-08-08 02:57:00,
2013-08-07 23:02:00,79.2,76.3,30.00,East,96,0.0,4.0,91,0.00,,,0.00,meteohub,2013-08-08 03:02:00,
2013-08-07 23:07:00,79.2,76.3,30.01,East,96,0.0,4.0,91,0.00,,,0.00,meteohub,2013-08-08 03:07:00,
2013-08-07 23:12:00,79.2,76.3,30.00,East,96,0.0,2.0,91,0.00,,,0.00,meteohub,2013-08-08 03:12:00,
2013-08-07 23:17:00,79.2,76.3,30.00,East,96,0.0,2.0,91,0.00,,,0.00,meteohub,2013-08-08 03:17:00,
2013-08-07 23:22:00,79.2,76.3,30.01,East,96,0.0,1.0,91,0.00,,,0.00,meteohub,2013-08-08 03:22:00,
2013-08-07 23:27:00,79.2,76.3,30.01,East,96,0.0,2.0,91,0.00,,,0.00,meteohub,2013-08-08 03:27:00,
2013-08-07 23:32:00,79.0,76.5,30.01,East,96,0.0,2.0,92,0.00,,,0.00,meteohub,2013-08-08 03:32:00,
2013-08-07 23:37:00,79.0,76.5,30.01,East,96,0.0,2.0,92,0.00,,,0.00,meteohub,2013-08-08 03:37:00,
2013-08-07 23:42:00,79.0,76.8,30.00,East,96,0.0,2.0,93,0.00,,,0.00,meteohub,2013-08-08 03:42:00,
2013-08-07 23:47:00,79.0,76.8,30.01,East,96,0.0,2.0,93,0.00,,,0.00,meteohub,2013-08-08 03:47:00,
2013-08-07 23:52:00,79.0,76.8,30.01,East,96,0.0,0.0,93,0.00,,,0.00,meteohub,2013-08-08 03:52:00,
2013-08-07 23:57:00,79.0,76.8,30.00,East,96,0.0,0.0,93,0.00,,,0.00,meteohub,2013-08-08 03:57:00,